www.pogodaiklimat.ru

Погода и климат >> Архив погоды >> Мадагаскар >> Махадзанга


ПОГОДА в Махадзанге

  • Прогноз погоды в Махадзанге
  • Монитор погоды в Махадзанге

АРХИВ ПОГОДЫ в Махадзанге

Время (UTC), дата Ветер
(напр.,м/с)
 
Видим.   Явления Облачность Т
(С)
Тd
(С)
f
(%)
Тe
(С)
Тes
(С)
Комфортность P
(гПа)
Po
(гПа)
Тmin
(С)
Tmax
(С)
R
(мм)
R24
(мм)
S
(см)
18 14.03 штиль 0 30 км 9/5 600 м
[Cb cap Ac trans]
+28.0 +24.9 83 +40 +40 очень
душно
1013.3 1011.2 +32.0
21 14.03 штиль 0 30 км 6/4 600 м
[Cb cap Ac trans]
+27.0 +25.6 92 +40 +40 очень
душно
1013.1 1011.0
00 15.03 ЮВ 3 8000 м слаб. дождь 10/5 600 м
[Cb cap Ac As]
+26.0 +24.6 92 +37 +37 очень
душно
1011.8 1009.8 2
03 15.03 ЮВ 1 15 км слаб. дождь 9/4 600 м
[Cb cap Ac As]
+25.3 +23.9 92 +35 +35 очень
душно
1012.6 1010.5
06 15.03 С 1 40 км {дождь} 9/5 300 м
[Cb cap Ac As]
+26.2 +24.7 91 +37 +40 очень
душно
1013.6 1011.5 +25.2 +32.0 4
09 15.03 СЗ 3 40 км 6/3 600 м
[Cu Sc Ac trans Ci sp]
+30.0 +25.9 79 +45 +54 опасность
перегрева
1011.8 1009.7
12 15.03 СЗ 4 40 км 6/4 600 м
[Cb cap Ac trans Ci sp]
+30.8 +24.8 70 +44 +47 опасность
перегрева
1009.6 1007.5
15 15.03 СЗ 3 40 км 6/3 600 м
[Cb cap Ac trans Ci sp]
+28.2 +23.6 76 +38 +38 очень
душно
1009.9 1007.8 +32.0
18 15.03 З 2 30 км 4/1 600 м
[Cb cap Ci sp]
+27.3 +24.0 82 +38 +38 очень
душно
1011.4 1009.3 +32.0
21 15.03 З 2 30 км 4/1 600 м
[Cb cap Ci sp]
+26.7 +24.3 87 +37 +37 очень
душно
1011.1 1009.0
00 16.03 Ю 2 30 км 3/3 600 м
[Cb cap Ci sp]
+26.6 +24.4 88 +37 +37 очень
душно
1009.9 1007.8
03 16.03 ЮВ 4 4000 м дождь 10/6 500 м
[Cb cap Ac As]
+25.3 +23.9 92 +35 +35 очень
душно
1011.4 1009.3
06 16.03 В 3 20 км гроза без осадков 9/6 300 м
[Cb cap Ac trans Ci sp]
+26.0 +22.4 81 +34 +36 очень
душно
1013.2 1011.1 +23.2 +32.0 5
09 16.03 СВ 2 40 км {гроза} 8/3 600 м
[Cb cap Ac trans Ci sp]
+29.0 +23.3 71 +39 +48 очень
душно
1012.0 1009.9
12 16.03 С 3 40 км {гроза} 4/3 600 м
[Cb cap Ac trans Ci sp]
+30.7 +24.7 70 +43 +49 опасность
перегрева
1009.3 1007.3
15 16.03 С 2 30 км 3/3 600 м
[Cb cap Ac trans Ci sp]
+28.2 +24.6 81 +40 +40 очень
душно
1009.7 1007.6 +31.6 2
18 16.03 С 1 30 км 3/1 600 м
[Cb cap Ac trans Ci sp]
+26.0 +23.6 87 +35 +35 очень
душно
1011.1 1009.0 +31.6
21 16.03 СЗ 1 30 км 5/5 600 м
[Cb cap Ac trans Ci sp]
+25.8 +24.0 90 +36 +36 очень
душно
1011.1 1009.0
00 17.03 Ю 1 30 км 5/5 600 м
[Cb cap Ac trans Ci sp]
+25.4 +23.7 90 +35 +35 очень
душно
1010.1 1008.0
03 17.03 ЮВ 1 35 км 3/3 600 м
[Cb cap Ac trans Ci sp]
+25.0 +23.3 90 +33 +33 очень
душно
1010.9 1008.8
06 17.03 ЮВ 3 40 км 4/4 600 м
[Cb cap Ac trans Ci sp]
+29.2 +24.9 78 +42 +47 опасность
перегрева
1012.7 1010.6 +24.8 +31.6
09 17.03 СЗ 2 40 км 5/4 600 м
[Cb cap Ac trans Ci sp]
+30.6 +25.0 72 +44 +55 опасность
перегрева
1011.9 1009.9
12 17.03 С 4 40 км 8/4 600 м
[Cb cap Ac trans Ci sp]
+31.2 +26.1 74 +47 +49 опасность
перегрева
1010.2 1008.1
15 17.03 СЗ 2 30 км 8/3 600 м
[Cb cap Ac trans Ci sp]
+28.0 +25.2 85 +41 +41 опасность
перегрева
1010.4 1008.3
18 17.03 СЗ 1 30 км 4/3 600 м
[Cb cap Ac trans Ci sp]
+27.3 +24.9 87 +39 +39 очень
душно
1011.9 1009.8 +32.0
21 17.03 штиль 0 30 км 4/1 600 м
[Cu Sc Ac trans]
+26.0 +24.9 94 +37 +37 очень
душно
1012.2 1010.1
00 18.03 штиль 0 30 км 4/3 600 м
[Cu Sc Ac trans]
+25.4 +24.3 94 +35 +35 очень
душно
1010.9 1008.8
03 18.03 ЮВ 1 30 км 4/3 600 м
[Cb cap Ac trans Ci sp]
+24.9 +24.1 95 +34 +34 очень
душно
1011.6 1009.5
06 18.03 Ю 2 40 км 6/5 600 м
[Cu Sc Ac trans Ci sp]
+28.8 +23.8 74 +39 +44 очень
душно
1013.7 1011.6 +24.9 +32.0
09 18.03 СЗ 2 40 км 6/5 600 м
[Cb cap Ac trans Ci sp]
+32.0 +26.5 73 +49 +58 опасность
перегрева
1012.4 1010.3
12 18.03 СЗ 4 40 км гроза без осадков 8/6 600 м
[Cb cap Ac trans Ci sp]
+32.0 +25.8 70 +47 +49 опасность
перегрева
1009.5 1007.5
15 18.03 С 2 35 км 6/3 600 м
[Cb cap Ac trans Ci sp]
+30.0 +26.2 80 +45 +45 опасность
перегрева
1010.2 1008.1 +32.2
18 18.03 З 2 30 км 9/6 600 м
[Cb cap Ac trans Ci sp]
+28.0 +25.5 86 +41 +41 опасность
перегрева
1012.1 1010.0 +32.2
21 18.03 З 1 30 км 4/3 600 м
[Cu Sc Ac trans Ci sp]
+27.8 +25.6 88 +41 +41 опасность
перегрева
1012.2 1010.1
00 19.03 ЮВ 1 30 км 4/3 600 м
[Cu Sc Ac trans Ci sp]
+27.2 +25.0 88 +39 +39 очень
душно
1011.2 1009.1
03 19.03 ЮВ 1 35 км 4/3 600 м
[Cb cap Ac trans Ci sp]
+26.0 +24.3 90 +36 +36 очень
душно
1010.9 1008.8
06 19.03 ЮВ 2 40 км 4/3 600 м
[Cb cap Ac trans Ci sp]
+30.0 +24.1 71 +42 +49 опасность
перегрева
1012.1 1010.0 +25.8 +32.2
09 19.03 СЗ 2 40 км 6/5 600 м
[Cb cap Ac trans Ci sp]
+32.0 +25.0 67 +46 +55 опасность
перегрева
1010.3 1008.2
12 19.03 С 3 40 км 4/3 600 м
[Cb cap Ac trans]
+32.6 +26.0 68 +48 +53 опасность
перегрева
1008.3 1006.2
15 19.03 СЗ 3 40 км 5/3 600 м
[Cb cap Ci sp]
+29.0 +27.1 90 +46 +46 опасность
перегрева
1008.7 1006.6 +33.7
18 19.03 СЗ 2 30 км 3/3 600 м
[Cb cap Ac trans Ci sp]
+27.8 +24.7 83 +39 +39 очень
душно
1010.6 1008.5 +33.7
21 19.03 З 1 30 км 3/3 600 м
[Cb cap Ac trans Ci sp]
+27.2 +24.7 86 +39 +39 очень
душно
1010.8 1008.7
00 20.03 ЮВ 1 30 км 3/3 600 м
[Cb cap Ac trans Ci sp]
+26.6 +24.1 86 +37 +37 очень
душно
1009.8 1007.7
03 20.03 ЮВ 2 35 км 5/4 600 м
[Cb cap Ac trans Ci sp]
+25.2 +23.5 90 +34 +34 очень
душно
1009.9 1007.9
06 20.03 В 2 40 км 3/1 600 м
[Cu med, cong Ci sp]
+30.6 +23.6 66 +41 +51 опасность
перегрева
1010.9 1008.8 +25.6 +33.7
09 20.03 СЗ 3 40 км 4/3 600 м
[Cu Sc Ci sp]
+32.3 +24.9 65 +46 +57 опасность
перегрева
1009.4 1007.3
12 20.03 СЗ 3 40 км 3/3 600 м
[Cu Sc Ci sp]
+32.3 +25.8 69 +48 +53 опасность
перегрева
1007.1 1005.1
15 20.03 СЗ 4 40 км 3/3 600 м
[Cb cap Ci sp]
+29.0 +23.3 71 +39 +39 очень
душно
1007.8 1005.7 +33.0
18 20.03 СЗ 3 30 км зарница 3/1 600 м
[Cb cap Ci sp]
+28.0 +24.2 80 +39 +39 очень
душно
1009.5 1007.4 +33.0
21 20.03 СЗ 3 30 км 8/6 600 м
[Cb cap Ac trans]
+27.4 +24.0 82 +38 +38 очень
душно
1009.6 1007.6
00 21.03 Ю 4 25 км гроза без осадков 10/8 600 м
[Cb cap Ac As]
+26.3 +24.2 88 +37 +37 очень
душно
1009.6 1007.6
03 21.03 Ю 1 40 км гроза без осадков 6/3 600 м
[Cb cap Ac trans Ci sp]
+24.5 +23.2 92 +33 +33 очень
душно
1009.3 1007.2 75
06 21.03 ЮВ 2 40 км {гроза, дождь} 6/3 600 м
[Cb cap Ac trans Ci sp]
+27.5 +24.0 81 +38 +44 очень
душно
1011.4 1009.3 +24.0 +33.0 6
09 21.03 С 3 40 км 6/4 600 м
[Cb cap Ac trans Ci sp]
+32.0 +24.3 64 +44 +53 опасность
перегрева
1010.7 1008.6
12 21.03 С 4 40 км 4/3 600 м
[Cb cap Ac trans Ci sp]
+32.0 +26.0 71 +48 +52 опасность
перегрева
1008.5 1006.5
15 21.03 СЗ 1 30 км 4/3 600 м
[Cb cap Ac trans Ci sp]
+29.2 +25.3 80 +43 +43 опасность
перегрева
1009.4 1007.3 +33.0

 

Местоположение метеостанции Махадзанга (Мадагаскар): широта -15.66 долгота 46.35 высота над уровнем моря 18 м.

В архиве по умолчанию представлена погода в Махадзанге за последнюю неделю. Архивные данные за месяц целиком и за предыдущие месяцы, начиная с января 2011 года, Вы можете получить, выбрав интересующий диапазон дат из раскрывающегося списка и нажав кнопку "Ввод!".


*Определитесь, кто Вы:
робот инопланетянин человек

Внимание! Время в таблицах - всемирное. Для получения местного времени необходимо прибавить поправку, которая равна 3 ч.

Смотрите также архив погоды в соседних городах и на ближайших метеорологических станциях:

Погода в Анцухихи (Мадагаскар) (195 км)
Погода в Бесалампи (Мадагаскар) (234 км)
Погода в Амбоайтзилаозане (Мадагаскар) (317 км)
Погода в Аэропорту Fascene (Мадагаскар) (337 км)
Погода в Дзаудзи (Коморские Острова) (338 км)
Погода в Мэнтирано (Мадагаскар) (363 км)
Погода в Антананариву аэропорт (Мадагаскар) (369 км)
Погода в Антананариву (Мадагаскар) (377 км)
Погода на Нуси Бураха (Мадагаскар) (403 км)
Погода на Острове Жуан-ди-Нова (Реюньон) (417 км)

Пояснения к столбцам:

Ветер - указаны скорость ветра в м/с - средняя за 10 мин, порывы в срок и между сроками (в фигурных скобках) и направление, откуда дует ветер: С - северный, СВ - северо-восточный, В - восточный, ЮВ - юго-восточный, Ю - южный, ЮЗ - юго-западный, З - западный, СЗ - северо-западный.
Видимость - горизонтальная дальность видимости в метрах или километрах. При видимости от 1 до 10 км при отсутствии осадков обычно наблюдается дымка, при ухудшении видимости до 1 км и менее - туман. В сухую погоду видимость может ухудшаться дымом, пылью или мглою.
Явления - указаны атмосферные явления, наблюдавшиеся в срок или в последний час перед сроком; фигурными скобками обозначены явления, наблюдавшиеся между сроками (за 1-3 часа до срока); квадратными скобками обозначены град или гололедные отложения с указанием их диаметра в мм.
Облачность - указаны через наклонную черту общая и нижняя облачность в баллах и высота нижней границы облаков в метрах; квадратными скобками обозначены формы облаков: Ci - перистые, Cs - перисто-слоистые, Cc - перисто-кучевые, Ac - высококучевые, As - высокослоистые, Sc - слоисто-кучевые, Ns - слоисто-дождевые, Cu - кучевые, Cb - кучево-дождевые. Подробнее классификацию облаков см. в Атласе облаков (PDF).
T - Температура воздуха - температура, измеренная на высоте 2 м над землей.
Td - Температура точки росы - температура, при понижении до которой содержащийся в воздухе водяной пар достигнет насыщения.
f - Относительная влажность воздуха - влажноcть воздуха, измеренная на высоте 2 м над землей.
Te - Эффективная температура - температура, которую ощущает одетый по сезону человек в тени. Характеристика душности погоды. При расчете учитывается влияние влажности воздуха и скорости ветра на теплоощущения человека.
Tes - Эффективная температура на солнце - температура, которую ощущает человек, с поправкой на солнечный нагрев. Характеристика знойности погоды. Зависит от высоты солнца над горизонтом, облачности и скорости ветра. Ночью, в пасмурную погоду, а также при ветре 12 м/с и более поправка равна нулю.
P - Атмосферное давление - приведенное к уровню моря атмосферное давление.
Po - Атмосферное давление - измеренное на уровне метеостанции атмосферное давление.
Tmin - Минимальная температура - минимум температуры воздуха на высоте 2 м над землей.
Tmax - Максимальная температура - максимум температуры воздуха на высоте 2 м над землей.
R - Количество осадков - Количество выпавших осадков за период времени, мм. При наведении курсора мыши на число - период времени, за который выпало указанное количество осадков.
R24 - Количество осадков - Количество выпавших осадков за 24 часа, мм.
S - Снежный покров - Высота снежного покрова, см. При наведении курсора мыши на число - состояние снежного покрова и степень покрытия местности в баллах.